Location: Rancho Del Sol Observatory
(38.7214°N, 120.6350°W)
Time: 06:29:40
(UTC-08:00)

A-11 Canister half - Pass Details

Date: 01 February 2020
Orbit: 1517 x 1683 km, 47.2° (Epoch: 23 February)

Event Time Altitude Azimuth Distance (km) Brightness Sun altitude
Rises 06:17:40 0° 289° (WNW) 4,660 - -10.3°
Exits shadow 06:22:02 10° 271° (W) 3,703 10.4 -9.5°
Reaches altitude 10° 06:22:11 10° 270° (W) 3,678 10.4 -9.5°
Maximum altitude 06:27:17 16° 236° (SW) 3,214 10.3 -8.5°
Drops below altitude 10° 06:32:27 10° 201° (SSW) 3,706 11.0 -7.5°
Sets 06:37:05 0° 182° (S) 4,712 11.8 -6.7°
